Regional Weather Roundup
Issued by NWS

Home | Current Version | Previous Version | Graphics & Text | Print | Product List | Glossary Off
Versions: 1 2 3 4 5 6 7 8 9 10 11 12 13 14 15 16 17 18 19 20 21 22 23 24 25 26 27 28 29 30 31 32 33 34 35 36 37 38 39 40 41 42 43 44 45 46 47 48 49 50

000
ASUS43 KTOP 172059
RWRKS

WEATHER ROUNDUP FOR KANSAS
NATIONAL WEATHER SERVICE GOODLAND KS
400 PM CDT WED SEP 17 2014

NOTE:  "FAIR" INDICATES FEW OR NO CLOUDS BELOW 12,000 FEET WITH NO
SIGNIFICANT WEATHER AND/OR OBSTRUCTIONS TO VISIBILITY.

KSZ001>006-013>018-027>032-041>047-172200-
NORTHWEST KANSAS

CITY           SKY/WX    TMP DP  RH WIND       PRES   REMARKS
GOODLAND       MOSUNNY   87  54  32 SE10      29.91F
HAYS           SUNNY     88  66  48 E9        29.86F
HILL CITY      SUNNY     88  63  43 E10       29.87F
RUSSELL        SUNNY     86  67  52 E10       29.85F
$$

KSZ061>065-074>080-084>089-172200-
SOUTHWEST KANSAS

CITY           SKY/WX    TMP DP  RH WIND       PRES   REMARKS
DODGE CITY     MOSUNNY   95  49  20 VRB7      29.88F
ELKHART          N/A     89  57  33 S7          N/A
GARDEN CITY    MOSUNNY   92  48  22 S6        29.88F
GREAT BEND     SUNNY     90  66  45 E9        29.84F
LIBERAL        CLOUDY    91  55  29 SW12      29.91F
$$

KSZ066>073-081>083-090>101-172200-
SOUTHEAST KANSAS

CITY           SKY/WX    TMP DP  RH WIND       PRES   REMARKS
CHANUTE        MOSUNNY   89  69  51 CALM      29.84F
COFFEYVILLE    MOSUNNY   91  71  51 S9        29.83F HX  97
HUTCHINSON     SUNNY     94  63  35 E5        29.83F HX  95
NEWTON         SUNNY     90  64  43 NE7         N/A
PARSONS        MOSUNNY   90  72  55 SW5       29.85F HX  97
WICHITA INTL   MOSUNNY   97  58  27 VRB6      29.81F HX  96
WICHITA JABRA  SUNNY     94  60  32 S6        29.83F
WINFIELD       SUNNY     94  61  33 SW7       29.83F
$$

KSZ007>012-019>026-033>040-048>060-102>105-172200-
NORTHEAST KANSAS

CITY           SKY/WX    TMP DP  RH WIND       PRES   REMARKS
CONCORDIA      SUNNY     78  67  68 E9        29.89S
EMPORIA        SUNNY     81  69  67 NE10      29.87F
LAWRENCE       CLOUDY    76  66  71 SE8       29.89F
MANHATTAN      SUNNY     80  67  64 E10       29.88F
OLATHE IND     CLOUDY    75  67  76 E8        29.91S
OLATHE EXE     CLOUDY    73  67  81 E7        29.90F
SALINA         SUNNY     86  68  54 E9        29.85F
TOPEKA BILLARD CLOUDY    77  68  73 E9        29.90S
TOPEKA FORBES  CLOUDY    76  66  71 E7        29.90F
$$


USA.gov is the U.S. government's official web portal to all federal, state and local government web resources and services.